Terminal Aerodrome Forecast
Issued by NWS Grand Forks, ND

Home | Current Version | Previous Version | Graphics & Text | Print | Product List | Glossary On
Versions: 1 2 3 4 5 6 7 8 9 10 11 12 13 14 15 16 17
501
FTUS43 KFGF 101014 AAB
TAFFAR
TAF AMD
KFAR 101014Z 1010/1106 VRB05KT P6SM BKN019
     FM101500 VRB06KT P6SM SCT090
     FM101900 11006KT P6SM BKN050
     FM110000 08007KT 5SM -SN OVC010=

USA.gov is the U.S. government's official web portal to all federal, state and local government web resources and services.